Location: Roland
(31.1349°N, 85.4372°W)
Time: 23:38:27
(UTC+00:00)

S-56A Canister/Altair - Pass Details

Date: 26 April 2021
Orbit: 632 x 2501 km, 38.9° (Epoch: 11 May)

Event Time Altitude Azimuth Distance (km) Brightness Sun altitude
Rises 00:21:35 0° 213° (SSW) 6,099 12.3 -1.8°
Reaches altitude 10° 00:26:08 10° 207° (SSW) 4,965 11.8 -2.7°
Maximum altitude 00:38:27 40° 144° (SE) 2,622 9.9 -5.2°
Drops below altitude 10° 00:47:27 10° 79° (ENE) 3,670 10.5 -7.0°
Sets 00:50:16 0° 71° (ENE) 4,409 10.9 -7.6°
